Weather Roundup
Issued by NWS

Home | Current Version | Previous Version | Text Only | Print | Product List | Glossary On
Versions: 1 2 3 4 5 6 7 8 9 10 11 12 13 14 15 16 17 18 19 20 21 22 23 24 25 26 27 28 29 30 31 32 33 34 35 36 37 38 39 40 41 42 43 44 45 46 47 48 49 50
598
NZUS93 KARX 221310
HRRWXR

CURRENT HOURLY OBSERVATIONS ACROSS
MUCH OF THE UPPER MISSISSIPPI VALLEY
NATIONAL WEATHER SERVICE LA CROSSE WI
800 AM CDT FRI SEP 22 2017


...SOUTHEAST MINNESOTA...


CITY           SKY/WX    TMP DP  RH WIND       PRES   REMARKS
ROCHESTER      SUNNY     72  69  90 S10       29.92R
ROCHESTER/MAYO FAIR      73  70  91 SE8G16    29.92R
WINONA         SUNNY     75  68  78 S3        29.92R
AUSTIN         SUNNY     72  68  88 S8        29.90S
ALBERT LEA     CLOUDY    73  72  94 S9        29.89R FOG
DODGE CENTER   CLOUDY    73  66  78 S16       29.90S
PRESTON        SUNNY     73  67  82 S10G17    29.94S
OWATONNA       CLOUDY    73  70  88 S16       29.87R
FARIBAULT      PTCLDY    73  70  88 SE10G16   29.86R
$$

...ELSEWHERE IN MINNESOTA...


CITY           SKY/WX    TMP DP  RH WIND       PRES   REMARKS
MINNEAPOLIS    CLOUDY    74  71  91 SE7       29.84S
INTNL FALLS    CLOUDY    62  60  93 NE5       29.82F
DULUTH         LGT RAIN  64  63  96 E7        29.92F
RED WING       SUNNY     75  68  78 SE7       29.86S
REDWOOD FALLS  CLOUDY    76  71  85 SE8       29.76R THUNDER
MANKATO        CLOUDY    75  70  84 S10       29.83R
WORTHINGTON    CLEAR     75  70  84 S14       29.80
FAIRMONT       CLEAR     74  70  87 S13       29.83R
$$

...SOUTHWEST WISCONSIN...


CITY           SKY/WX    TMP DP  RH WIND       PRES   REMARKS
LA CROSSE      SUNNY     78  70  76 S16       29.93R
PRAIRIE DU CHI SUNNY     76  66  71 SE5       29.97S
BOSCOBEL       SUNNY     76  68  76 S3        29.98S
LONE ROCK      SUNNY     74  70  87 S7        29.99S
PLATTEVILLE    SUNNY     71  70  98 S8        30.02S
FORT MC COY    SUNNY     75  68  78 SW3       29.96S
CAMP DOUGLAS   MOSUNNY   72  70  94 E3        29.98S
MAUSTON-NEW LI SUNNY     70  67  92 CALM      29.98S
VIROQUA        FAIR      73  69  89 CALM      29.98S
WIS DELLS      SUNNY     73  66  76 S9        30.00S
$$

...ELSEWHERE IN WISCONSIN...


CITY           SKY/WX    TMP DP  RH WIND       PRES   REMARKS
MILWAUKEE      MOSUNNY   75  69  81 SW6       30.05S
MADISON        MOSUNNY   71  67  87 S7        30.03R
GREEN BAY      SUNNY     73  70  90 S8        30.00F
EAU CLAIRE     SUNNY     74  69  85 S9        29.90S
BLACK RVR FLS  FAIR      65  65 100 CALM      29.94S
MEDFORD        SUNNY     69  66  92 S8        29.98R
WAUSAU         MOSUNNY   70  67  90 S6        29.98R
WIS RAPIDS     PTSUNNY   71  67  87 S5        30.00S
MARSHFIELD     SUNNY     71  66  84 S8        29.98R
RICE LAKE      CLOUDY    70  67  91 SE7       29.91S
$$

...NORTHEAST IOWA...


CITY           SKY/WX    TMP DP  RH WIND       PRES   REMARKS
WATERLOO       SUNNY     74  68  81 S15G22    29.94R
DUBUQUE        SUNNY     70  67  90 S9        30.02R
DECORAH        SUNNY     75  68  78 S9G15     29.95S
MASON CITY     PTCLDY    71  68  90 SE10      29.92R
CHARLES CITY   MOSUNNY   73  72  94 S12       29.94R
OELWEIN        SUNNY     73  70  88 S8        29.98S
$$

...ELSEWHERE IN IOWA...


CITY           SKY/WX    TMP DP  RH WIND       PRES   REMARKS
DES MOINES     PTCLDY    74  70  87 S9        29.92R
IOWA CITY      SUNNY     72  68  87 S3        30.00S
FORT DODGE     CLEAR     76  70  82 S13       29.88R
MARSHALLTOWN   SUNNY     74  69  85 S12       29.94R
CEDAR RAPIDS   SUNNY     73  68  84 S9        29.98S
$$

...NORTHERN ILLINOIS...


CITY           SKY/WX    TMP DP  RH WIND       PRES   REMARKS
CHICAGO-OHARE  MOSUNNY   76  67  73 SW6       30.07R
CHICAGO-MIDWAY MOSUNNY   77  68  73 S7        30.08R
MOLINE         SUNNY     75  68  78 CALM      30.02R
ROCKFORD       MOSUNNY   71  67  87 S6        30.06S
PEORIA         SUNNY     73  69  87 S6        30.06R
$$

NOTE: "FAIR" INDICATES FEW OR NO CLOUDS BELOW 12,000 FEET WITH NO
SIGNIFICANT WEATHER AND/OR OBSTRUCTIONS TO VISIBILITY. WIND
SPEEDS ARE IN MILES-PER-HOUR.




USA.gov is the U.S. government's official web portal to all federal, state and local government web resources and services.